GW3250 Weather Reports


time (UTC)temp
C
wind
direction
speed
KPH
gust
KPH
rain 1hr
cm
rain 24hr
cm
rain mn
cm
humidity
%
barometer
mb
20260906205623 23 120 0.0 1.6 0.00 0.00 0.00 56 1014.1
20260906205115 23 107 1.6 3.2 0.00 0.00 0.00 57 1013.7
20260906204614 22 95 0.0 0.0 0.00 0.00 0.00 60 1013.9
20260906204108 22 100 0.0 0.0 0.00 0.00 0.00 62 1013.8
20260906203608 22 100 1.6 1.6 0.00 0.00 0.00 60 1013.6
20260906203057 22 100 0.0 0.0 0.00 0.00 0.00 62 1013.6
20260906202553 22 93 1.6 1.6 0.00 0.00 0.00 59 1013.6
20260906202048 23 88 0.0 0.0 0.00 0.00 0.00 60 1013.6
20260906201547 23 124 0.0 1.6 0.00 0.00 0.00 57 1013.6
20260906201042 23 129 1.6 1.6 0.00 0.00 0.00 60 1013.6
20260906200538 23 114 0.0 1.6 0.00 0.00 0.00 63 1013.6
20260906200034 22 147 3.2 4.8 0.00 0.00 0.00 59 1013.8
20260906195529 22 69 3.2 4.8 0.00 0.00 0.00 58 1013.7
20260906195026 24 96 3.2 3.2 0.00 0.00 0.00 56 1013.8
20260906194521 25 301 3.2 4.8 0.00 0.00 0.00 52 1013.5
20260906194017 25 166 1.6 1.6 0.00 0.00 0.00 56 1013.6
20260906193516 24 176 1.6 1.6 0.00 0.00 0.00 59 1013.6
20260906193012 22 72 3.2 4.8 0.00 0.00 0.00 58 1013.4
20260906192507 22 99 0.0 1.6 0.00 0.00 0.00 62 1013.7
20260906192006 23 46 1.6 3.2 0.00 0.00 0.00 58 1013.6
20260906191501 23 308 0.0 1.6 0.00 0.00 0.00 58 1013.6
20260906191000 23 227 1.6 3.2 0.00 0.00 0.00 60 1013.8
20260906190459 22 131 1.6 3.2 0.00 0.00 0.00 63 1013.8
20260906185954 22 109 1.6 1.6 0.00 0.00 0.00 65 1013.7
20260906185453 23 135 3.2 6.4 0.00 0.00 0.00 60 1013.8
20260906184952 23 93 0.0 1.6 0.00 0.00 0.00 60 1013.9
20260906184448 23 86 1.6 1.6 0.00 0.00 0.00 59 1013.6
20260906183943 25 165 6.4 11.3 0.00 0.00 0.00 55 1013.8
20260906183438 23 328 1.6 3.2 0.00 0.00 0.00 58 1013.8
20260906182933 23 137 1.6 1.6 0.00 0.00 0.00 63 1013.7
20260906182429 23 203 1.6 1.6 0.00 0.00 0.00 62 1013.7
20260906181925 23 120 0.0 0.0 0.00 0.00 0.00 62 1013.6
20260906181420 24 146 1.6 1.6 0.00 0.00 0.00 59 1013.7
20260906180916 23 129 0.0 1.6 0.00 0.00 0.00 62 1013.6
20260906180405 22 87 3.2 3.2 0.00 0.00 0.00 64 1013.6
20260906175903 22 181 0.0 1.6 0.00 0.00 0.00 64 1013.8
20260906175358 23 205 3.2 4.8 0.00 0.00 0.00 62 1013.5
20260906174857 23 102 0.0 1.6 0.00 0.00 0.00 64 1013.7
20260906174357 23 102 1.6 3.2 0.00 0.00 0.00 58 1013.4
20260906173851 22 112 1.6 3.2 0.00 0.00 0.00 63 1013.8
20260906173347 22 51 1.6 1.6 0.00 0.00 0.00 62 1014.0
20260906172846 23 292 4.8 6.4 0.00 0.00 0.00 62 1013.8
20260906172343 22 193 1.6 1.6 0.00 0.00 0.00 69 1014.0
20260906171837 22 77 1.6 1.6 0.00 0.00 0.00 70 1014.1
20260906171332 22 168 1.6 3.2 0.00 0.00 0.00 70 1013.8
20260906170827 21 97 0.0 0.0 0.00 0.00 0.00 72 1014.1
20260906170323 22 154 3.2 3.2 0.00 0.00 0.00 67 1013.9
20260906165819 22 122 4.8 6.4 0.00 0.00 0.00 67 1013.9
20260906165314 22 138 3.2 3.2 0.00 0.00 0.00 71 1014.0
20260906164813 21 109 4.8 6.4 0.00 0.00 0.00 71 1014.1
20260906164308 20 145 0.0 0.0 0.00 0.00 0.00 78 1014.2
20260906163804 20 114 1.6 3.2 0.00 0.00 0.00 75 1014.3
20260906163301 21 7 4.8 4.8 0.00 0.00 0.00 73 1014.1
20260906162757 22 100 4.8 4.8 0.00 0.00 0.00 70 1014.2
20260906162251 21 189 1.6 1.6 0.00 0.00 0.00 72 1014.1
20260906161746 21 126 0.0 1.6 0.00 0.00 0.00 79 1014.1
20260906161245 20 188 0.0 0.0 0.00 0.00 0.00 80 1014.2
20260906160744 19 196 3.2 3.2 0.00 0.00 0.00 85 1014.4
20260906160244 19 196 1.6 1.6 0.00 0.00 0.00 86 1014.6
20260906155741 19 196 1.6 1.6 0.00 0.00 0.00 86 1014.7
20260906155236 20 166 0.0 0.0 0.00 0.00 0.00 84 1014.7
20260906154732 20 240 3.2 4.8 0.00 0.00 0.00 83 1014.4
20260906154227 19 108 3.2 4.8 0.00 0.00 0.00 85 1014.5
20260906153725 19 184 0.0 0.0 0.00 0.00 0.00 87 1014.5
20260906153219 20 177 1.6 1.6 0.00 0.00 0.00 85 1014.5
20260906152714 20 162 1.6 1.6 0.00 0.00 0.00 84 1014.6
20260906152210 20 181 1.6 3.2 0.00 0.00 0.00 79 1014.6
20260906151704 20 178 0.0 1.6 0.00 0.00 0.00 83 1014.5
20260906151200 19 178 1.6 1.6 0.00 0.00 0.00 87 1014.3
20260906150655 18 180 1.6 3.2 0.00 0.00 0.00 90 1014.5
20260906150150 18 164 0.0 1.6 0.00 0.00 0.00 88 1014.5
20260906145648 19 166 1.6 1.6 0.00 0.00 0.00 88 1014.4
20260906145143 18 168 0.0 1.6 0.00 0.00 0.00 86 1014.6
20260906144637 18 188 0.0 0.0 0.00 0.00 0.00 88 1014.6
20260906144138 18 188 0.0 1.6 0.00 0.00 0.00 90 1014.4
20260906143637 18 175 1.6 1.6 0.00 0.00 0.00 90 1014.5
20260906143135 19 172 1.6 1.6 0.00 0.00 0.00 90 1014.5
20260906142634 19 183 3.2 3.2 0.00 0.00 0.00 85 1014.5
20260906142129 18 177 0.0 0.0 0.00 0.00 0.00 88 1014.4
20260906141628 18 206 1.6 1.6 0.00 0.00 0.00 91 1014.3
20260906141124 18 154 0.0 0.0 0.00 0.00 0.00 89 1014.1
20260906140622 18 225 1.6 3.2 0.00 0.00 0.00 88 1014.3
20260906140118 18 183 1.6 1.6 0.00 0.00 0.00 92 1014.3
20260906135614 19 263 3.2 4.8 0.00 0.00 0.00 87 1014.3
20260906135110 18 183 1.6 1.6 0.00 0.00 0.00 88 1014.3
20260906134606 18 183 0.0 1.6 0.00 0.00 0.00 93 1014.5
20260906134101 17 183 0.0 0.0 0.00 0.00 0.00 94 1014.2
20260906133556 17 183 0.0 0.0 0.00 0.00 0.00 95 1014.2
20260906133052 18 179 1.6 1.6 0.00 0.00 0.00 92 1014.1
20260906132546 18 193 1.6 1.6 0.00 0.00 0.00 90 1013.8
20260906132042 18 112 0.0 0.0 0.00 0.00 0.00 92 1013.7
20260906131537 16 205 3.2 3.2 0.00 0.00 0.00 98 1013.9
20260906131033 16 189 1.6 1.6 0.00 0.00 0.00 99 1014.3
20260906130532 16 188 1.6 1.6 0.00 0.00 0.00 99 1014.0
20260906130027 15 177 3.2 4.8 0.00 0.00 0.00 99 1014.2
20260906125524 15 186 1.6 1.6 0.00 0.00 0.00 99 1014.2
20260906125019 15 201 1.6 1.6 0.00 0.00 0.00 99 1014.0
20260906124514 15 201 3.2 3.2 0.00 0.00 0.00 99 1014.1
20260906124009 15 201 1.6 3.2 0.00 0.00 0.00 99 1013.9
20260906123508 15 200 3.2 3.2 0.00 0.00 0.00 99 1013.9
20260906123004 15 200 1.6 1.6 0.00 0.00 0.00 99 1013.8
20260906122457 15 199 1.6 1.6 0.00 0.00 0.00 99 1013.6
20260906121954 15 199 3.2 3.2 0.00 0.00 0.00 99 1014.0
20260906121450 15 199 1.6 1.6 0.00 0.00 0.00 99 1013.9
20260906120946 14 199 1.6 3.2 0.00 0.00 0.00 99 1013.7
20260906120441 14 199 1.6 1.6 0.00 0.00 0.00 99 1013.9
20260906115937 14 191 1.6 3.2 0.00 0.00 0.00 99 1013.8
20260906115432 15 188 1.6 1.6 0.00 0.00 0.00 99 1013.7
20260906114926 14 193 1.6 1.6 0.00 0.00 0.00 99 1013.9
20260906114421 14 196 0.0 0.0 0.00 0.00 0.00 99 1013.7
20260906113917 14 194 1.6 1.6 0.00 0.00 0.00 99 1013.6
20260906113415 14 194 3.2 3.2 0.00 0.00 0.00 99 1013.7
20260906112911 14 194 1.6 1.6 0.00 0.00 0.00 99 1013.7
20260906112407 14 193 0.0 0.0 0.00 0.00 0.00 99 1013.5
20260906111902 14 193 0.0 0.0 0.00 0.00 0.00 99 1013.6
20260906111402 14 193 1.6 1.6 0.00 0.00 0.00 99 1013.3
20260906110856 14 193 1.6 1.6 0.00 0.00 0.00 99 1013.4
20260906110352 13 193 1.6 1.6 0.00 0.00 0.00 99 1013.4
20260906105851 13 193 0.0 1.6 0.00 0.00 0.00 99 1013.5
20260906105347 13 193 0.0 1.6 0.00 0.00 0.00 99 1013.5
20260906104843 13 193 0.0 0.0 0.00 0.00 0.00 99 1013.0
20260906104341 13 193 0.0 0.0 0.00 0.00 0.00 99 1013.0
20260906103840 13 193 1.6 3.2 0.00 0.00 0.00 99 1013.0
20260906103338 13 192 0.0 0.0 0.00 0.00 0.00 99 1013.0
20260906102835 13 192 0.0 0.0 0.00 0.00 0.00 99 1013.0
20260906102333 13 193 1.6 1.6 0.00 0.00 0.00 99 1012.5
20260906101829 13 192 1.6 3.2 0.00 0.00 0.00 99 1012.7
20260906101324 13 193 1.6 1.6 0.00 0.00 0.00 99 1012.4
20260906100819 13 192 1.6 1.6 0.00 0.00 0.00 99 1012.5
20260906100318 13 192 3.2 3.2 0.00 0.00 0.00 99 1012.3
20260906095813 13 192 3.2 3.2 0.00 0.00 0.00 99 1012.1
20260906095309 13 192 1.6 1.6 0.00 0.00 0.00 99 1012.3
20260906094808 13 192 0.0 0.0 0.00 0.00 0.00 99 1012.2
20260906094303 13 192 0.0 1.6 0.00 0.00 0.00 99 1012.5
20260906093759 13 192 1.6 1.6 0.00 0.00 0.00 99 1012.3
20260906093255 13 192 0.0 0.0 0.00 0.00 0.00 99 1012.3
20260906092749 13 192 0.0 0.0 0.00 0.00 0.00 99 1012.2
20260906092244 13 192 1.6 1.6 0.00 0.00 0.00 99 1012.0
20260906091740 13 192 1.6 1.6 0.00 0.00 0.00 99 1011.8
20260906091236 13 192 1.6 1.6 0.00 0.00 0.00 99 1011.9
20260906090732 13 192 0.0 1.6 0.00 0.00 0.00 99 1011.9
20260906090231 13 192 0.0 0.0 0.00 0.00 0.00 99 1012.0
20260906085731 13 192 0.0 0.0 0.00 0.00 0.00 99 1011.9
20260906085230 13 192 0.0 0.0 0.00 0.00 0.00 99 1012.0
20260906084724 13 192 1.6 1.6 0.00 0.00 0.00 99 1012.0
20260906084219 13 192 0.0 1.6 0.00 0.00 0.00 99 1012.0
20260906083713 13 192 0.0 1.6 0.00 0.00 0.00 99 1012.0
20260906083209 13 192 1.6 1.6 0.00 0.00 0.00 99 1011.7
20260906082704 13 192 1.6 1.6 0.00 0.00 0.00 99 1011.7
20260906082154 13 192 0.0 0.0 0.00 0.00 0.00 99 1011.7
20260906081649 13 192 0.0 0.0 0.00 0.00 0.00 99 1011.5
20260906081144 13 192 1.6 1.6 0.00 0.00 0.00 99 1011.6
20260906080641 13 192 0.0 1.6 0.00 0.00 0.00 99 1011.5
20260906080136 13 192 0.0 0.0 0.00 0.00 0.00 99 1011.7
20260906075630 13 192 1.6 1.6 0.00 0.00 0.00 99 1011.5
20260906075125 13 192 0.0 0.0 0.00 0.00 0.00 99 1011.7
20260906074620 13 192 0.0 0.0 0.00 0.00 0.00 99 1011.4
20260906074119 13 192 0.0 0.0 0.00 0.00 0.00 99 1011.5
20260906073614 13 192 0.0 0.0 0.00 0.00 0.00 99 1011.6
20260906073110 13 192 0.0 0.0 0.00 0.00 0.00 99 1011.4
20260906072605 13 192 0.0 0.0 0.00 0.00 0.00 99 1011.6
20260906072101 13 192 0.0 0.0 0.00 0.00 0.00 99 1011.6
20260906071557 14 192 0.0 0.0 0.00 0.00 0.00 99 1011.5
20260906071051 14 192 0.0 0.0 0.00 0.00 0.00 99 1011.6
20260906070548 14 192 0.0 0.0 0.00 0.00 0.00 99 1011.6
20260906070043 14 192 0.0 0.0 0.00 0.00 0.00 99 1011.6
20260906065542 14 192 0.0 0.0 0.00 0.00 0.00 99 1011.5
20260906065038 14 192 0.0 0.0 0.00 0.00 0.00 99 1011.5
20260906064534 14 192 0.0 0.0 0.00 0.00 0.00 99 1011.7
20260906064029 14 192 0.0 0.0 0.00 0.00 0.00 99 1011.8
20260906063524 14 192 1.6 1.6 0.00 0.00 0.00 99 1011.8
20260906063020 14 192 0.0 1.6 0.00 0.00 0.00 99 1011.6
20260906062515 14 192 0.0 0.0 0.00 0.00 0.00 99 1011.5
20260906062009 14 192 0.0 0.0 0.00 0.00 0.00 99 1011.7
20260906061506 14 192 0.0 0.0 0.00 0.00 0.00 99 1011.7
20260906061005 14 192 0.0 0.0 0.00 0.00 0.00 99 1011.9
20260906060502 15 192 0.0 0.0 0.00 0.00 0.00 99 1011.9
20260906055953 15 192 1.6 1.6 0.00 0.00 0.00 99 1011.8
20260906055448 15 192 0.0 0.0 0.00 0.00 0.00 99 1011.9
20260906054943 15 192 0.0 0.0 0.00 0.00 0.00 99 1011.7
20260906054438 15 192 0.0 0.0 0.00 0.00 0.00 99 1011.9
20260906053933 15 192 0.0 1.6 0.00 0.00 0.00 99 1011.9
20260906053430 15 192 0.0 0.0 0.00 0.00 0.00 99 1012.0
20260906052925 15 192 0.0 0.0 0.00 0.00 0.00 99 1012.1
20260906052421 15 192 1.6 1.6 0.00 0.00 0.00 99 1011.9
20260906051918 15 193 1.6 3.2 0.00 0.00 0.00 99 1011.9
20260906051413 15 192 0.0 0.0 0.00 0.00 0.00 99 1012.0
20260906050908 15 192 1.6 1.6 0.00 0.00 0.00 99 1011.9
20260906050403 15 79 1.6 3.2 0.00 0.00 0.00 99 1012.0
20260906045902 15 79 0.0 0.0 0.00 0.00 0.00 99 1012.0
20260906045401 15 79 0.0 0.0 0.00 0.00 0.00 99 1011.8
20260906044857 15 78 0.0 0.0 0.00 0.00 0.00 99 1011.9
20260906044351 15 78 0.0 0.0 0.00 0.00 0.00 99 1012.0
20260906043847 15 78 0.0 0.0 0.00 0.00 0.00 99 1011.9
20260906043343 15 79 0.0 0.0 0.00 0.00 0.00 99 1012.0
20260906042838 15 79 0.0 0.0 0.00 0.00 0.00 99 1012.0
20260906042336 15 79 0.0 0.0 0.00 0.00 0.00 99 1012.2
20260906041832 15 78 0.0 0.0 0.00 0.00 0.00 99 1012.2
20260906041329 15 79 0.0 0.0 0.00 0.00 0.00 99 1012.1
20260906040828 15 79 0.0 0.0 0.00 0.00 0.00 99 1011.7
20260906040323 15 79 1.6 1.6 0.00 0.00 0.00 99 1011.8
20260906035819 15 79 0.0 0.0 0.00 0.00 0.00 99 1011.7
20260906035314 15 79 0.0 0.0 0.00 0.00 0.00 99 1011.8
20260906034809 15 78 0.0 0.0 0.00 0.00 0.00 99 1011.7
20260906034309 15 79 0.0 0.0 0.00 0.00 0.00 99 1011.9
20260906033805 15 79 0.0 0.0 0.00 0.00 0.00 99 1011.8
20260906033304 15 78 1.6 1.6 0.00 0.00 0.00 99 1011.8
20260906032801 15 79 0.0 0.0 0.00 0.00 0.00 99 1011.8
20260906032256 15 78 0.0 0.0 0.00 0.00 0.00 99 1011.8
20260906031751 15 78 0.0 0.0 0.00 0.00 0.00 99 1011.9
20260906031247 15 78 1.6 1.6 0.00 0.00 0.00 99 1011.8
20260906030746 15 79 1.6 1.6 0.00 0.00 0.00 99 1011.9
20260906030242 15 78 0.0 0.0 0.00 0.00 0.00 99 1011.5
20260906025741 15 78 0.0 0.0 0.00 0.00 0.00 99 1011.6
20260906025235 15 78 0.0 0.0 0.00 0.00 0.00 99 1011.7
20260906024734 15 78 0.0 0.0 0.00 0.00 0.00 99 1011.6
20260906024234 15 78 0.0 0.0 0.00 0.00 0.00 99 1011.7
20260906023730 15 78 0.0 0.0 0.00 0.00 0.00 99 1011.8
20260906023225 15 78 0.0 0.0 0.00 0.00 0.00 99 1011.7
20260906022720 15 78 0.0 0.0 0.00 0.00 0.00 99 1011.5
20260906022215 15 78 0.0 0.0 0.00 0.00 0.00 99 1011.7
20260906021712 15 78 0.0 0.0 0.00 0.00 0.00 99 1011.7
20260906021210 15 78 0.0 0.0 0.00 0.00 0.00 99 1011.7
20260906020705 15 78 0.0 0.0 0.00 0.00 0.00 99 1011.8
20260906020159 15 78 0.0 0.0 0.00 0.00 0.00 99 1011.5
20260906015654 15 78 0.0 0.0 0.00 0.00 0.00 99 1011.4
20260906015152 15 78 0.0 0.0 0.00 0.00 0.00 98 1011.5
20260906014647 15 78 0.0 0.0 0.00 0.00 0.00 98 1011.5
20260906014143 16 78 0.0 1.6 0.00 0.00 0.00 98 1011.6
20260906013638 16 78 0.0 0.0 0.00 0.00 0.00 97 1011.5
20260906013133 16 78 0.0 0.0 0.00 0.00 0.00 96 1011.3
20260906012628 16 78 0.0 0.0 0.00 0.00 0.00 95 1011.5
20260906012123 16 78 0.0 0.0 0.00 0.00 0.00 95 1011.5
20260906011618 16 78 0.0 0.0 0.00 0.00 0.00 94 1011.4
20260906011113 16 78 0.0 0.0 0.00 0.00 0.00 94 1011.2
20260906010608 16 78 0.0 0.0 0.00 0.00 0.00 95 1011.1
20260906010104 16 78 0.0 0.0 0.00 0.00 0.00 95 1011.2
20260906005603 16 78 0.0 0.0 0.00 0.00 0.00 95 1011.0
20260906005102 16 78 0.0 0.0 0.00 0.00 0.00 95 1011.1
20260906004556 17 78 0.0 0.0 0.00 0.00 0.00 94 1011.2
20260906004051 17 78 0.0 0.0 0.00 0.00 0.00 93 1011.2
20260906003546 17 78 0.0 0.0 0.00 0.00 0.00 92 1011.1
20260906003042 17 78 0.0 0.0 0.00 0.00 0.00 91 1010.7
20260906002537 17 78 0.0 0.0 0.00 0.00 0.00 91 1010.8
20260906002032 17 78 0.0 0.0 0.00 0.00 0.00 90 1010.7
20260906001527 18 78 0.0 0.0 0.00 0.00 0.00 90 1010.9
20260906001021 18 78 0.0 0.0 0.00 0.00 0.00 90 1010.7
20260906000517 18 78 0.0 0.0 0.00 0.00 0.00 87 1010.7
20260906000012 18 78 0.0 1.6 0.00 0.00 0.00 87 1010.7
20260905235506 18 74 1.6 1.6 0.00 0.00 0.00 87 1010.9
20260905235001 18 145 0.0 0.0 0.00 0.00 0.00 87 1010.6
20260905234456 18 151 0.0 1.6 0.00 0.00 0.00 87 1010.4
20260905233950 18 150 0.0 0.0 0.00 0.00 0.00 87 1010.6
20260905233446 18 93 0.0 1.6 0.00 0.00 0.00 87 1010.4
20260905232944 18 149 0.0 1.6 0.00 0.00 0.00 86 1010.4
20260905232441 18 154 0.0 0.0 0.00 0.00 0.00 85 1010.4
20260905231936 19 154 0.0 0.0 0.00 0.00 0.00 84 1010.4
20260905231432 19 154 0.0 0.0 0.00 0.00 0.00 83 1010.4
20260905230928 20 154 0.0 0.0 0.00 0.00 0.00 82 1010.3
20260905230427 20 154 0.0 0.0 0.00 0.00 0.00 83 1010.3
20260905225925 20 154 0.0 1.6 0.00 0.00 0.00 82 1010.5
20260905225420 20 154 0.0 0.0 0.00 0.00 0.00 81 1010.2
20260905224915 20 155 1.6 1.6 0.00 0.00 0.00 80 1010.4
20260905224411 20 148 0.0 1.6 0.00 0.00 0.00 79 1010.4
20260905223905 20 148 0.0 0.0 0.00 0.00 0.00 79 1010.3
20260905223403 20 148 0.0 0.0 0.00 0.00 0.00 80 1010.3
20260905222858 20 148 0.0 0.0 0.00 0.00 0.00 79 1010.2
20260905222356 21 147 0.0 0.0 0.00 0.00 0.00 79 1010.2
20260905221852 21 147 0.0 0.0 0.00 0.00 0.00 77 1010.2
20260905221349 21 147 0.0 0.0 0.00 0.00 0.00 78 1010.2
20260905220839 21 147 0.0 0.0 0.00 0.00 0.00 77 1010.3
20260905220335 21 147 0.0 1.6 0.00 0.00 0.00 77 1009.9
20260905215834 21 165 0.0 1.6 0.00 0.00 0.00 77 1009.9
20260905215330 22 165 0.0 0.0 0.00 0.00 0.00 75 1009.9
20260905214826 22 140 0.0 1.6 0.00 0.00 0.00 73 1009.7
20260905214321 22 139 0.0 0.0 0.00 0.00 0.00 73 1009.8
20260905213816 23 182 1.6 3.2 0.00 0.00 0.00 71 1009.8
20260905213312 23 177 3.2 4.8 0.00 0.00 0.00 67 1009.8
20260905212807 23 162 1.6 1.6 0.00 0.00 0.00 72 1009.8
20260905212307 22 35 0.0 0.0 0.00 0.00 0.00 76 1010.1
20260905211801 22 172 0.0 0.0 0.00 0.00 0.00 76 1009.8
20260905211255 22 148 0.0 1.6 0.00 0.00 0.00 74 1009.8
20260905210753 22 168 1.6 3.2 0.00 0.00 0.00 72 1009.7
20260905210247 22 170 0.0 0.0 0.00 0.00 0.00 70 1009.8